DL9BGG-13 Weather Reports


time (UTC)temp
C
wind
direction
speed
KPH
gust
KPH
rain 1hr
cm
rain 24hr
cm
rain mn
cm
humidity
%
barometer
mb
20260831124410 19 247 0.0 0.0 0.00 0.15 0.00 78 1051.8
20260831124259 19 292 9.7 0.0 0.00 0.15 0.00 78 1051.8
20260831124150 18 270 6.4 0.0 0.00 0.15 0.00 77 1051.8
20260831124038 18 292 8.0 0.0 0.00 0.15 0.00 77 1051.8
20260831123908 18 202 17.7 0.0 0.00 0.15 0.00 77 1051.8
20260831123755 18 292 17.7 0.0 0.00 0.15 0.00 77 1051.8
20260831123641 18 202 8.0 0.0 0.00 0.15 0.00 77 1051.8
20260831123522 18 180 0.0 0.0 0.00 0.15 0.00 77 1051.8
20260831123417 18 202 9.7 0.0 0.00 0.15 0.00 77 1051.8
20260831123310 18 202 8.0 0.0 0.00 0.15 0.00 77 1051.8
20260831123149 18 247 14.5 0.0 0.00 0.15 0.00 77 1051.8
20260831123028 18 180 9.7 0.0 0.00 0.15 0.00 77 1051.8
20260831122915 18 202 11.3 0.0 0.00 0.15 0.00 77 1051.7
20260831122756 18 202 11.3 0.0 0.00 0.15 0.00 77 1051.8
20260831122642 18 202 22.5 0.0 0.00 0.15 0.00 77 1051.8
20260831122538 18 202 0.0 0.0 0.00 0.15 0.00 76 1051.8
20260831122431 17 225 8.0 0.0 0.00 0.15 0.00 76 1051.8
20260831122318 17 180 9.7 0.0 0.00 0.15 0.00 76 1051.8
20260831122156 17 225 11.3 0.0 0.00 0.15 0.00 78 1051.7
20260831122036 17 180 9.7 0.0 0.00 0.15 0.00 78 1051.7
20260831121924 17 202 14.5 0.0 0.00 0.15 0.00 78 1051.7
20260831121809 17 202 9.7 0.0 0.00 0.15 0.00 78 1051.7
20260831121656 17 202 14.5 0.0 0.00 0.15 0.00 78 1051.6
20260831121543 17 180 11.3 0.0 0.00 0.15 0.00 78 1051.6
20260831121438 17 157 12.9 0.0 0.00 0.15 0.00 79 1051.5
20260831121333 17 202 4.8 0.0 0.00 0.15 0.00 79 1051.6
20260831121220 17 202 6.4 0.0 0.00 0.15 0.00 79 1051.6
20260831121112 17 202 1.6 0.0 0.00 0.15 0.00 78 1051.6
20260831121001 17 247 6.4 0.0 0.00 0.15 0.00 78 1051.6
20260831120853 17 225 4.8 0.0 0.00 0.15 0.00 78 1051.6
20260831120739 17 180 12.9 0.0 0.00 0.15 0.00 78 1051.6
20260831120626 17 202 16.1 0.0 0.00 0.15 0.00 78 1051.7
20260831120520 17 180 14.5 0.0 0.00 0.15 0.00 78 1051.8
20260831120357 17 157 20.9 0.0 0.00 0.15 0.00 77 1051.8
20260831120235 17 225 14.5 0.0 0.00 0.15 0.00 76 1051.8
20260831120124 17 202 6.4 0.0 0.00 0.15 0.00 76 1051.8
20260831120017 17 202 0.0 0.0 0.00 0.15 0.00 75 1051.8
20260831115859 17 202 8.0 0.0 0.00 0.15 0.00 75 1051.8
20260831115752 18 225 9.7 0.0 0.00 0.15 0.00 74 1051.8
20260831115630 18 225 4.8 0.0 0.00 0.15 0.00 74 1051.8
20260831115509 18 292 17.7 0.0 0.00 0.15 0.00 76 1051.8
20260831115356 18 247 8.0 0.0 0.00 0.15 0.00 76 1051.8
20260831115242 18 202 8.0 0.0 0.00 0.15 0.00 76 1051.8
20260831115121 19 225 6.4 0.0 0.00 0.15 0.00 75 1051.7
20260831115011 19 225 14.5 0.0 0.00 0.15 0.00 75 1051.7
20260831114905 19 180 24.1 0.0 0.00 0.15 0.00 73 1051.7
20260831114757 19 202 27.4 0.0 0.00 0.15 0.00 72 1051.6
20260831114636 20 247 14.5 0.0 0.00 0.15 0.00 72 1051.5
20260831114523 20 247 17.7 0.0 0.00 0.15 0.00 72 1051.4
20260831114409 20 270 9.7 0.0 0.00 0.15 0.00 71 1051.4
20260831114248 20 202 8.0 0.0 0.00 0.15 0.00 71 1051.4
20260831114135 20 225 25.7 0.0 0.00 0.15 0.00 71 1051.4
20260831114014 20 202 12.9 0.0 0.00 0.15 0.00 71 1051.4
20260831113901 20 202 27.4 0.0 0.00 0.15 0.00 70 1051.4
20260831113750 20 202 9.7 0.0 0.00 0.15 0.00 70 1051.3
20260831113643 20 180 9.7 0.0 0.00 0.15 0.00 70 1051.4
20260831113529 20 180 6.4 0.0 0.00 0.15 0.00 70 1051.3
20260831113410 20 202 17.7 0.0 0.00 0.15 0.00 70 1051.3
20260831113255 20 247 6.4 0.0 0.00 0.15 0.00 69 1051.3
20260831113142 20 202 11.3 0.0 0.00 0.15 0.00 69 1051.4
20260831113029 20 225 22.5 0.0 0.00 0.15 0.00 68 1051.3
20260831112908 21 202 3.2 0.0 0.00 0.15 0.00 67 1051.3
20260831112748 21 202 22.5 0.0 0.00 0.15 0.00 66 1051.3
20260831112635 21 315 11.3 0.0 0.00 0.15 0.00 66 1051.2
20260831112530 21 180 6.4 0.0 0.00 0.15 0.00 65 1051.2
20260831112425 21 202 11.3 0.0 0.00 0.15 0.00 64 1051.2
20260831112310 21 292 0.0 0.0 0.00 0.15 0.00 62 1051.2
20260831112157 22 225 12.9 0.0 0.00 0.15 0.00 62 1051.2
20260831112044 22 270 11.3 0.0 0.00 0.15 0.00 61 1051.2
20260831111930 22 180 9.7 0.0 0.00 0.15 0.00 60 1051.2
20260831111811 23 135 14.5 0.0 0.00 0.15 0.00 60 1051.2
20260831111650 23 202 30.6 0.0 0.00 0.15 0.00 61 1051.2
20260831111545 23 225 22.5 0.0 0.00 0.15 0.00 61 1051.2
20260831111433 23 247 11.3 0.0 0.00 0.15 0.00 61 1051.2
20260831111327 23 247 19.3 0.0 0.00 0.15 0.00 62 1051.2
20260831111214 23 247 11.3 0.0 0.00 0.15 0.00 62 1051.3
20260831111102 23 247 8.0 0.0 0.00 0.15 0.00 63 1051.2
20260831110955 23 180 12.9 0.0 0.00 0.15 0.00 63 1051.2
20260831110841 23 270 4.8 0.0 0.00 0.15 0.00 61 1051.2
20260831110720 23 157 22.5 0.0 0.00 0.15 0.00 61 1051.3
20260831110559 23 180 9.7 0.0 0.00 0.15 0.00 61 1051.2
20260831110438 23 202 17.7 0.0 0.00 0.15 0.00 61 1051.2
20260831110312 23 202 11.3 0.0 0.00 0.15 0.00 61 1051.2
20260831110205 23 225 12.9 0.0 0.00 0.15 0.00 62 1051.2
20260831110052 23 247 6.4 0.0 0.00 0.15 0.00 62 1051.2
20260831105939 23 180 16.1 0.0 0.00 0.15 0.00 62 1051.2
20260831105826 23 270 19.3 0.0 0.00 0.15 0.00 63 1051.2
20260831105712 23 270 6.4 0.0 0.00 0.15 0.00 61 1051.2
20260831105558 23 247 20.9 0.0 0.00 0.15 0.00 63 1051.3
20260831105439 23 270 9.7 0.0 0.00 0.15 0.00 64 1051.2
20260831105332 23 225 16.1 0.0 0.00 0.15 0.00 64 1051.2
20260831105212 23 225 12.9 0.0 0.00 0.15 0.00 63 1051.2
20260831105057 23 292 14.5 0.0 0.00 0.15 0.00 64 1051.3
20260831104945 23 292 8.0 0.0 0.00 0.15 0.00 64 1051.3
20260831104834 23 180 11.3 0.0 0.00 0.15 0.00 64 1051.4
20260831104727 23 247 4.8 0.0 0.00 0.15 0.00 65 1051.4
20260831104614 22 225 11.3 0.0 0.00 0.15 0.00 66 1051.3
20260831104509 22 180 12.9 0.0 0.00 0.15 0.00 65 1051.3
20260831104355 22 247 9.7 0.0 0.00 0.15 0.00 66 1051.4
20260831104237 22 225 24.1 0.0 0.00 0.15 0.00 66 1051.3
20260831104129 22 202 30.6 0.0 0.00 0.15 0.00 66 1051.3
20260831104016 22 180 14.5 0.0 0.00 0.15 0.00 68 1051.2
20260831103911 22 247 4.8 0.0 0.00 0.15 0.00 68 1051.4
20260831103752 22 180 6.4 0.0 0.00 0.15 0.00 68 1051.2
20260831103645 22 247 11.3 0.0 0.00 0.15 0.00 69 1051.2
20260831103534 22 202 8.0 0.0 0.00 0.15 0.00 68 1051.4
20260831103426 22 225 6.4 0.0 0.00 0.15 0.00 67 1051.4
20260831103313 22 157 16.1 0.0 0.00 0.15 0.00 68 1051.4
20260831103153 22 247 9.7 0.0 0.00 0.15 0.00 69 1051.3
20260831103031 22 180 11.3 0.0 0.00 0.15 0.00 68 1051.5
20260831102910 22 225 9.7 0.0 0.00 0.15 0.00 68 1051.5
20260831102757 22 225 12.9 0.0 0.00 0.15 0.00 68 1051.5
20260831102635 22 292 0.0 0.0 0.00 0.15 0.00 69 1051.5
20260831102517 22 225 11.3 0.0 0.00 0.15 0.00 69 1051.5
20260831102410 22 202 12.9 0.0 0.00 0.15 0.00 68 1051.4
20260831102257 22 202 27.4 0.0 0.00 0.15 0.00 68 1051.5
20260831102143 22 180 9.7 0.0 0.00 0.15 0.00 69 1051.4
20260831102022 21 180 8.0 0.0 0.00 0.15 0.00 72 1051.5
20260831101909 21 180 9.7 0.0 0.00 0.15 0.00 73 1051.4
20260831101741 21 247 25.7 0.0 0.00 0.15 0.00 73 1051.5
20260831101633 21 157 9.7 0.0 0.00 0.15 0.00 74 1051.5
20260831101519 21 180 11.3 0.0 0.00 0.15 0.00 75 1051.4
20260831101358 21 270 0.0 0.0 0.00 0.15 0.00 75 1051.5
20260831101245 21 247 4.8 0.0 0.00 0.15 0.00 75 1051.5
20260831101133 21 225 20.9 0.0 0.00 0.15 0.00 75 1051.5
20260831101027 21 225 3.2 0.0 0.00 0.15 0.00 74 1051.6
20260831100922 21 180 14.5 0.0 0.00 0.15 0.00 72 1051.6
20260831100816 21 270 6.4 0.0 0.00 0.15 0.00 71 1051.5
20260831100710 21 225 19.3 0.0 0.00 0.15 0.00 71 1051.6
20260831100559 21 225 9.7 0.0 0.00 0.15 0.00 70 1051.5
20260831100454 21 225 24.1 0.0 0.00 0.15 0.00 70 1051.5
20260831100338 21 247 4.8 0.0 0.00 0.15 0.00 70 1051.6
20260831100217 21 247 12.9 0.0 0.00 0.15 0.00 71 1051.7
20260831100050 21 247 12.9 0.0 0.00 0.15 0.00 71 1051.6
20260831095943 21 202 11.3 0.0 0.00 0.15 0.00 71 1051.7
20260831095833 21 180 24.1 0.0 0.00 0.15 0.00 71 1051.7
20260831095726 21 157 9.7 0.0 0.00 0.15 0.00 70 1051.7
20260831095620 21 225 14.5 0.0 0.00 0.15 0.00 71 1051.7
20260831095516 21 180 12.9 0.0 0.00 0.15 0.00 71 1051.7
20260831095410 21 180 9.7 0.0 0.00 0.15 0.00 71 1051.6
20260831095258 21 225 16.1 0.0 0.00 0.15 0.00 71 1051.7
20260831095151 21 225 11.3 0.0 0.00 0.15 0.00 71 1051.6
20260831095031 21 202 9.7 0.0 0.00 0.15 0.00 70 1051.7
20260831094919 21 202 12.9 0.0 0.00 0.15 0.00 70 1051.7
20260831094805 21 270 16.1 0.0 0.00 0.15 0.00 70 1051.6
20260831094653 21 180 12.9 0.0 0.00 0.15 0.00 70 1051.7
20260831094546 21 225 25.7 0.0 0.00 0.15 0.00 72 1051.8
20260831094425 21 225 8.0 0.0 0.00 0.15 0.00 71 1051.8
20260831094303 21 270 9.7 0.0 0.00 0.15 0.00 72 1051.8
20260831094153 21 202 17.7 0.0 0.00 0.15 0.00 72 1051.8
20260831094047 21 202 8.0 0.0 0.00 0.15 0.00 72 1051.8
20260831093941 21 247 11.3 0.0 0.00 0.15 0.00 72 1051.9
20260831093838 21 180 12.9 0.0 0.00 0.15 0.00 71 1051.8
20260831093730 21 180 17.7 0.0 0.00 0.15 0.00 70 1051.9
20260831093609 21 225 9.7 0.0 0.00 0.15 0.00 70 1051.8
20260831093458 21 202 9.7 0.0 0.00 0.15 0.00 69 1051.8
20260831093351 21 247 8.0 0.0 0.00 0.15 0.00 69 1051.8
20260831093229 22 270 11.3 0.0 0.00 0.15 0.00 68 1051.8
20260831093100 22 157 9.7 0.0 0.00 0.15 0.00 68 1051.8
20260831092947 22 225 6.4 0.0 0.00 0.15 0.00 70 1051.7
20260831092842 21 202 8.0 0.0 0.00 0.15 0.00 72 1051.7
20260831092728 21 202 20.9 0.0 0.00 0.15 0.00 72 1051.7
20260831092607 21 247 0.0 0.0 0.00 0.15 0.00 73 1051.7
20260831092453 21 202 14.5 0.0 0.00 0.15 0.00 74 1051.8
20260831092339 21 247 12.9 0.0 0.00 0.15 0.00 73 1051.7
20260831092226 20 180 9.7 0.0 0.00 0.15 0.00 73 1051.7
20260831092115 20 225 6.4 0.0 0.00 0.15 0.00 73 1051.7
20260831092008 21 202 9.7 0.0 0.00 0.15 0.00 71 1051.7
20260831091854 21 180 14.5 0.0 0.00 0.15 0.00 71 1051.7
20260831091742 21 202 11.3 0.0 0.00 0.15 0.00 70 1051.7
20260831091628 21 180 12.9 0.0 0.00 0.15 0.00 69 1051.6
20260831091506 21 180 9.7 0.0 0.00 0.15 0.00 69 1051.7
20260831091346 21 180 24.1 0.0 0.00 0.15 0.00 68 1051.7
20260831091226 22 202 20.9 0.0 0.00 0.15 0.00 67 1051.7
20260831091121 22 180 9.7 0.0 0.00 0.15 0.00 67 1051.7
20260831091015 22 225 9.7 0.0 0.00 0.15 0.00 67 1051.6
20260831090846 22 157 8.0 0.0 0.00 0.15 0.00 66 1051.6
20260831090733 23 225 19.3 0.0 0.00 0.15 0.00 66 1051.5
20260831090629 23 180 12.9 0.0 0.00 0.15 0.00 66 1051.5
20260831090523 23 180 12.9 0.0 0.00 0.15 0.00 65 1051.5
20260831090419 23 247 8.0 0.0 0.00 0.15 0.00 66 1051.4
20260831090313 23 225 11.3 0.0 0.00 0.15 0.00 66 1051.4
20260831090209 23 202 16.1 0.0 0.00 0.15 0.00 66 1051.4
20260831090103 23 225 9.7 0.0 0.00 0.15 0.00 65 1051.4
20260831085957 23 202 16.1 0.0 0.00 0.20 0.00 66 1051.4
20260831085839 23 247 16.1 0.0 0.00 0.20 0.00 67 1051.4
20260831085731 23 180 6.4 0.0 0.00 0.20 0.00 67 1051.4
20260831085610 23 157 12.9 0.0 0.00 0.20 0.00 66 1051.3
20260831085450 23 202 9.7 0.0 0.00 0.20 0.00 67 1051.4
20260831085345 23 225 27.4 0.0 0.00 0.20 0.00 66 1051.3
20260831085223 23 180 8.0 0.0 0.00 0.20 0.00 67 1051.3
20260831085110 23 202 11.3 0.0 0.00 0.20 0.00 68 1051.4
20260831084941 22 202 12.9 0.0 0.00 0.20 0.00 69 1051.3
20260831084819 22 225 12.9 0.0 0.00 0.20 0.00 69 1051.4
20260831084658 22 247 9.7 0.0 0.00 0.20 0.00 69 1051.4
20260831084548 22 202 9.7 0.0 0.00 0.20 0.00 70 1051.4
20260831084441 22 247 8.0 0.0 0.00 0.20 0.00 70 1051.4
20260831084319 22 292 14.5 0.0 0.00 0.20 0.00 71 1051.4
20260831084207 22 225 8.0 0.0 0.00 0.20 0.00 72 1051.3
20260831084100 22 270 16.1 0.0 0.00 0.20 0.00 73 1051.4
20260831083948 22 225 17.7 0.0 0.00 0.20 0.00 74 1051.4
20260831083834 21 180 12.9 0.0 0.00 0.20 0.00 76 1051.3
20260831083713 21 180 4.8 0.0 0.00 0.20 0.00 77 1051.4
20260831083553 21 225 9.7 0.0 0.00 0.20 0.00 77 1051.3
20260831083442 21 202 11.3 0.0 0.00 0.20 0.00 77 1051.3
20260831083336 20 202 11.3 0.0 0.00 0.20 0.00 78 1051.4
20260831083215 20 180 25.7 0.0 0.00 0.20 0.00 79 1051.4
20260831083054 20 202 14.5 0.0 0.00 0.20 0.00 79 1051.4
20260831082923 20 292 14.5 0.0 0.00 0.20 0.00 78 1051.4
20260831082759 20 202 9.7 0.0 0.05 0.20 0.00 79 1051.4
20260831082645 20 157 11.3 0.0 0.05 0.20 0.00 79 1051.3
20260831082530 20 247 6.4 0.0 0.05 0.20 0.00 80 1051.4
20260831082407 20 225 9.7 0.0 0.05 0.20 0.00 80 1051.3
20260831082254 20 270 9.7 0.0 0.05 0.20 0.00 80 1051.3
20260831082132 20 225 14.5 0.0 0.05 0.20 0.00 79 1051.4
20260831082009 20 225 14.5 0.0 0.05 0.20 0.00 79 1051.3
20260831081859 20 135 3.2 0.0 0.05 0.20 0.00 80 1051.3
20260831081753 20 180 14.5 0.0 0.05 0.20 0.00 80 1051.5
20260831081631 20 202 8.0 0.0 0.05 0.20 0.00 81 1051.4
20260831081511 19 202 12.9 0.0 0.05 0.20 0.00 80 1051.3
20260831081358 19 180 12.9 0.0 0.05 0.20 0.00 81 1051.4
20260831081243 20 180 16.1 0.0 0.05 0.20 0.00 81 1051.4
20260831081114 19 135 4.8 0.0 0.05 0.20 0.00 81 1051.5
20260831081001 19 225 9.7 0.0 0.05 0.20 0.00 81 1051.4
20260831080848 19 202 6.4 0.0 0.05 0.20 0.00 81 1051.5
20260831080728 19 180 25.7 0.0 0.05 0.20 0.00 81 1051.5
20260831080622 19 247 20.9 0.0 0.05 0.20 0.00 80 1051.5
20260831080503 19 157 22.5 0.0 0.05 0.20 0.00 80 1051.5
20260831080355 19 180 19.3 0.0 0.05 0.20 0.00 80 1051.6
20260831080235 19 202 11.3 0.0 0.05 0.20 0.00 80 1051.6
20260831080121 19 157 17.7 0.0 0.05 0.20 0.00 80 1051.6
20260831075953 19 157 20.9 0.0 0.05 0.20 0.00 80 1051.6
20260831075846 19 225 17.7 0.0 0.05 0.20 0.00 80 1051.4
20260831075740 19 202 12.9 0.0 0.05 0.20 0.00 80 1051.5
20260831075626 20 157 25.7 0.0 0.05 0.20 0.00 79 1051.6
20260831075521 20 202 12.9 0.0 0.05 0.20 0.00 79 1051.5
20260831075414 20 157 12.9 0.0 0.05 0.20 0.00 78 1051.6
20260831075308 20 225 9.7 0.0 0.05 0.20 0.00 78 1051.6
20260831075148 20 180 11.3 0.0 0.05 0.20 0.00 77 1051.6
20260831075043 20 225 19.3 0.0 0.05 0.20 0.00 77 1051.6
20260831074930 20 247 9.7 0.0 0.05 0.20 0.00 76 1051.6
20260831074816 21 225 17.7 0.0 0.05 0.20 0.00 75 1051.6
20260831074654 21 202 14.5 0.0 0.05 0.20 0.00 76 1051.6
20260831074533 21 180 3.2 0.0 0.05 0.20 0.00 77 1051.6
20260831074404 21 202 14.5 0.0 0.05 0.20 0.00 76 1051.5
20260831074251 21 202 19.3 0.0 0.05 0.20 0.00 75 1051.6
20260831074138 21 180 16.1 0.0 0.05 0.20 0.00 74 1051.5
20260831074018 21 202 32.2 0.0 0.05 0.20 0.00 75 1051.6
20260831073912 21 202 0.0 0.0 0.05 0.20 0.00 79 1051.6
20260831073404 19 180 183.5 0.0 0.05 0.20 0.00 82 1051.5
20260831072741 19 180 183.5 0.0 0.00 0.15 0.00 82 1051.6
20260831072111 20 180 183.5 0.0 0.00 0.15 0.00 81 1051.5
20260831071506 20 180 183.5 0.0 0.00 0.15 0.00 81 1051.3
20260831070900 20 180 183.5 0.0 0.00 0.15 0.00 88 1051.3
20260831070237 18 180 183.5 0.0 0.00 0.15 0.00 92 1051.4
20260831065615 17 180 183.5 0.0 0.00 0.15 0.00 92 1051.6
20260831065030 17 180 183.5 0.0 0.00 0.15 0.00 92 1051.6
20260831064416 17 180 183.5 0.0 0.00 0.15 0.00 93 1051.6
20260831063819 16 180 183.5 0.0 0.00 0.15 0.00 93 1051.6
20260831063221 16 180 183.5 0.0 0.00 0.15 0.00 94 1051.6
20260831062608 16 180 183.5 0.0 0.00 0.15 0.00 94 1051.5
20260831061953 16 180 183.5 0.0 0.00 0.15 0.00 94 1051.6
20260831061358 17 180 183.5 0.0 0.00 0.15 0.00 94 1051.6
20260831060750 17 180 183.5 0.0 0.00 0.15 0.00 94 1051.7
20260831060145 17 180 183.5 0.0 0.00 0.15 0.00 94 1051.7
20260831055541 17 180 183.5 0.0 0.00 0.15 0.00 94 1051.7
20260831054943 17 180 183.5 0.0 0.00 0.15 0.00 94 1051.7
20260831054330 16 180 183.5 0.0 0.00 0.15 0.00 94 1051.4
20260831053730 16 180 183.5 0.0 0.00 0.15 0.00 95 1051.7
20260831053133 16 180 183.5 0.0 0.00 0.15 0.00 95 1051.7
20260831052528 16 180 183.5 0.0 0.00 0.15 0.00 95 1051.6
20260831051930 16 180 183.5 0.0 0.00 0.15 0.00 95 1051.7
20260831051316 16 180 183.5 0.0 0.00 0.15 0.00 95 1051.8
20260831050720 16 180 183.5 0.0 0.00 0.15 0.00 95 1051.8
20260831050113 16 180 183.5 0.0 0.00 0.15 0.00 95 1051.8
20260831045459 16 180 183.5 0.0 0.00 0.15 0.00 95 1051.7
20260831044903 16 180 183.5 0.0 0.00 0.15 0.00 95 1051.5
20260831044256 16 180 183.5 0.0 0.00 0.15 0.00 95 1051.6
20260831043658 16 180 183.5 0.0 0.00 0.15 0.00 95 1051.5
20260831043045 16 180 183.5 0.0 0.00 0.15 0.00 95 1051.5
20260831042415 16 180 183.5 0.0 0.00 0.15 0.00 95 1051.6
20260831041802 16 180 183.5 0.0 0.00 0.15 0.00 95 1051.5
20260831041148 16 180 183.5 0.0 0.00 0.15 0.00 95 1051.5
20260831040520 16 180 183.5 0.0 0.00 0.15 0.00 95 1051.5
20260831035858 16 180 183.5 0.0 0.00 0.30 0.00 95 1051.4
20260831035234 16 180 183.5 0.0 0.00 0.30 0.00 95 1051.5
20260831034556 16 180 183.5 0.0 0.00 0.30 0.00 95 1051.6
20260831033934 16 180 183.5 0.0 0.00 0.30 0.00 95 1051.7
20260831033304 16 180 183.5 0.0 0.00 0.30 0.00 95 1051.8
20260831032634 16 180 183.5 0.0 0.00 0.30 0.00 95 1051.8
20260831032005 16 180 183.5 0.0 0.00 0.30 0.00 95 1051.8
20260831031334 16 180 183.5 0.0 0.00 0.30 0.00 95 1051.8
20260831030705 16 180 183.5 0.0 0.00 0.30 0.00 95 1051.9
20260831030034 16 180 183.5 0.0 0.05 0.30 0.00 95 1051.9
20260831025412 16 180 183.5 0.0 0.05 0.30 0.00 95 1051.9
20260831024734 16 180 183.5 0.0 0.10 0.30 0.00 95 1052.0
20260831024104 16 180 183.5 0.0 0.10 0.30 0.00 95 1051.9
20260831023434 16 180 183.5 0.0 0.10 0.30 0.00 95 1052.2
20260831022804 16 180 183.5 0.0 0.10 0.30 0.00 95 1052.2
20260831022134 16 180 183.5 0.0 0.10 0.30 0.00 95 1052.1
20260831021456 16 180 183.5 0.0 0.10 0.30 0.00 95 1051.9
20260831020826 16 180 183.5 0.0 0.10 0.30 0.00 95 1052.0
20260831020148 16 180 183.5 0.0 0.05 0.25 0.00 95 1052.0
20260831015534 16 180 183.5 0.0 0.05 0.36 0.00 95 1052.3
20260831014905 16 180 183.5 0.0 0.05 0.36 0.00 95 1052.3
20260831014234 16 180 183.5 0.0 0.00 0.30 0.00 95 1052.4
20260831013605 16 180 183.5 0.0 0.00 0.30 0.00 95 1052.4
20260831012935 16 180 183.5 0.0 0.00 0.30 0.00 95 1052.5
20260831012313 16 180 183.5 0.0 0.00 0.30 0.00 95 1052.5
20260831011620 16 157 0.0 0.0 0.00 0.30 0.00 94 1052.5
20260831011513 15 180 0.0 0.0 0.00 0.30 0.00 95 1052.6
20260831011200 15 157 11.3 0.0 0.00 0.30 0.00 94 1052.7
20260831011053 15 135 0.0 0.0 0.00 0.30 0.00 94 1052.6
20260831010940 15 157 0.0 0.0 0.00 0.30 0.00 94 1052.7
20260831010827 15 135 0.0 0.0 0.00 0.30 0.00 94 1052.7
20260831010705 15 180 4.8 0.0 0.00 0.30 0.00 94 1052.7
20260831010545 15 157 4.8 0.0 0.00 0.30 0.00 94 1052.8
20260831010440 15 157 0.0 0.0 0.00 0.30 0.00 94 1052.8
20260831010325 15 135 0.0 0.0 0.00 0.30 0.00 94 1052.9
20260831005939 15 202 8.0 0.0 0.00 0.30 0.00 94 1052.9
20260831005833 15 112 1.6 0.0 0.00 0.30 0.00 94 1052.9
20260831005721 15 135 0.0 0.0 0.00 0.30 0.00 94 1053.0
20260831005610 15 135 0.0 0.0 0.00 0.30 0.00 94 1053.0
20260831005502 15 135 0.0 0.0 0.00 0.30 0.00 94 1053.0
20260831005349 15 157 0.0 0.0 0.00 0.30 0.00 94 1053.1
20260831005230 15 157 0.0 0.0 0.00 0.30 0.00 94 1053.0
20260831005115 15 157 0.0 0.0 0.00 0.30 0.00 94 1053.0
20260831005001 15 135 0.0 0.0 0.00 0.30 0.00 94 1053.1
20260831004843 15 157 0.0 0.0 0.00 0.30 0.00 94 1053.1
20260831004737 15 180 0.0 0.0 0.00 0.30 0.00 94 1053.2
20260831004622 15 180 9.7 0.0 0.00 0.30 0.00 94 1053.1
20260831004503 15 157 1.6 0.0 0.00 0.30 0.00 94 1053.1
20260831004350 15 112 0.0 0.0 0.00 0.30 0.00 94 1053.1
20260831004237 15 135 1.6 0.0 0.00 0.30 0.00 94 1053.2
20260831004130 15 180 1.6 0.0 0.00 0.30 0.00 94 1053.2
20260831004016 15 157 3.2 0.0 0.00 0.30 0.00 94 1053.1
20260831003905 15 180 4.8 0.0 0.00 0.30 0.00 94 1053.3
20260831003758 15 157 0.0 0.0 0.00 0.30 0.00 94 1053.3
20260831003637 15 157 0.0 0.0 0.00 0.30 0.00 94 1053.2
20260831003524 15 157 0.0 0.0 0.00 0.30 0.00 94 1053.2
20260831003356 15 180 0.0 0.0 0.00 0.30 0.00 94 1053.3
20260831003249 15 180 6.4 0.0 0.00 0.30 0.00 94 1053.3
20260831003138 15 157 4.8 0.0 0.00 0.30 0.00 94 1053.3
20260831003032 15 157 0.0 0.0 0.00 0.30 0.00 94 1053.3
20260831002903 15 157 0.0 0.0 0.00 0.30 0.00 94 1053.3
20260831002742 15 135 0.0 0.0 0.00 0.30 0.00 94 1053.3
20260831002616 15 157 0.0 0.0 0.00 0.30 0.00 94 1053.3
20260831002502 15 157 0.0 0.0 0.00 0.30 0.00 94 1053.3
20260831002339 15 180 0.0 0.0 0.00 0.30 0.00 94 1053.3
20260831002210 15 202 4.8 0.0 0.00 0.30 0.00 94 1053.3
20260831002104 15 157 0.0 0.0 0.00 0.30 0.00 94 1053.4
20260831001952 15 180 0.0 0.0 0.00 0.30 0.00 94 1053.5
20260831001845 15 180 0.0 0.0 0.00 0.30 0.00 94 1053.4
20260831001732 15 157 0.0 0.0 0.00 0.30 0.00 94 1053.5
20260831001603 15 157 0.0 0.0 0.00 0.30 0.00 94 1053.5
20260831001449 15 157 0.0 0.0 0.00 0.30 0.00 94 1053.5
20260831001327 15 157 0.0 0.0 0.00 0.30 0.00 94 1053.6
20260831001218 15 157 0.0 0.0 0.00 0.30 0.00 94 1053.6
20260831001112 15 157 3.2 0.0 0.00 0.30 0.00 94 1053.5
20260831001007 15 157 0.0 0.0 0.00 0.30 0.00 94 1053.6
20260831000900 15 157 0.0 0.0 0.00 0.30 0.00 94 1053.5
20260831000746 15 180 0.0 0.0 0.00 0.30 0.00 94 1053.5
20260831000617 16 157 0.0 0.0 0.00 0.30 0.00 94 1053.6
20260831000505 16 157 0.0 0.0 0.00 0.30 0.00 94 1053.6
20260831000350 16 180 11.3 0.0 0.00 0.30 0.00 94 1053.6
20260831000233 16 157 0.0 0.0 0.00 0.30 0.00 94 1053.6
20260831000116 16 157 1.6 0.0 0.00 0.30 0.00 94 1053.7
20260830235957 16 157 0.0 0.0 0.00 0.41 0.00 94 1053.7
20260830235842 16 180 6.4 0.0 0.00 0.41 0.00 94 1053.7
20260830235729 16 180 0.0 0.0 0.00 0.41 0.00 94 1053.7
20260830235608 16 180 6.4 0.0 0.00 0.41 0.00 94 1053.6
20260830235454 16 157 0.0 0.0 0.00 0.41 0.00 94 1053.7
20260830235342 16 157 1.6 0.0 0.00 0.41 0.00 94 1053.7
20260830235228 16 157 0.0 0.0 0.00 0.41 0.00 94 1053.7
20260830235110 16 180 8.0 0.0 0.00 0.41 0.00 94 1053.7
20260830235003 15 180 9.7 0.0 0.00 0.41 0.00 94 1053.6
20260830234841 16 135 0.0 0.0 0.00 0.41 0.00 94 1053.7
20260830234720 15 180 8.0 0.0 0.00 0.41 0.00 94 1053.7
20260830234607 16 157 8.0 0.0 0.00 0.41 0.00 94 1053.7
20260830234503 16 157 0.0 0.0 0.00 0.41 0.00 94 1053.8
20260830234357 16 157 0.0 0.0 0.00 0.41 0.00 94 1053.7
20260830234235 16 180 0.0 0.0 0.00 0.41 0.00 94 1053.8
20260830234115 16 157 3.2 0.0 0.00 0.41 0.00 94 1053.8
20260830234003 16 180 4.8 0.0 0.00 0.41 0.00 94 1053.8
20260830233858 16 135 0.0 0.0 0.00 0.41 0.00 94 1053.8
20260830233752 16 157 1.6 0.0 0.00 0.41 0.00 94 1053.8
20260830233648 16 157 0.0 0.0 0.00 0.41 0.00 94 1053.8
20260830233543 16 157 0.0 0.0 0.00 0.41 0.00 94 1053.8
20260830233436 16 157 11.3 0.0 0.00 0.41 0.00 94 1053.9
20260830233324 16 135 3.2 0.0 0.00 0.41 0.00 94 1053.9
20260830233213 16 157 0.0 0.0 0.00 0.41 0.00 94 1053.9
20260830233105 16 157 9.7 0.0 0.00 0.41 0.00 93 1053.9
20260830232952 16 180 0.0 0.0 0.00 0.41 0.00 93 1053.9
20260830232839 16 135 3.2 0.0 0.00 0.41 0.00 94 1053.9
20260830232727 16 157 6.4 0.0 0.00 0.41 0.00 94 1053.9
20260830232621 16 180 0.0 0.0 0.00 0.41 0.00 93 1054.0
20260830232510 16 180 0.0 0.0 0.00 0.41 0.00 93 1053.9
20260830232402 16 135 0.0 0.0 0.00 0.41 0.00 93 1053.9
20260830232251 16 180 9.7 0.0 0.00 0.41 0.00 93 1054.0
20260830232145 16 157 0.0 0.0 0.00 0.41 0.00 93 1054.0
20260830232031 16 157 8.0 0.0 0.00 0.41 0.00 93 1054.0
20260830231918 16 202 0.0 0.0 0.00 0.41 0.00 93 1054.0
20260830231758 16 180 0.0 0.0 0.00 0.41 0.00 93 1053.9
20260830231652 16 135 6.4 0.0 0.00 0.41 0.00 93 1054.0
20260830231547 16 135 0.0 0.0 0.00 0.41 0.00 93 1054.0
20260830231426 16 157 0.0 0.0 0.00 0.41 0.00 93 1053.9
20260830231304 16 157 3.2 0.0 0.00 0.41 0.00 93 1054.0
20260830231135 16 135 0.0 0.0 0.00 0.41 0.00 93 1054.0
20260830231024 16 157 6.4 0.0 0.00 0.41 0.00 93 1054.0
20260830230917 16 157 0.0 0.0 0.00 0.41 0.00 93 1054.1
20260830230756 16 157 0.0 0.0 0.00 0.41 0.00 93 1054.1
20260830230652 16 157 0.0 0.0 0.00 0.41 0.00 93 1054.1
20260830230545 16 157 0.0 0.0 0.00 0.41 0.00 93 1054.1
20260830230424 16 157 0.0 0.0 0.00 0.41 0.00 93 1054.1
20260830230304 16 157 0.0 0.0 0.00 0.41 0.00 93 1054.1
20260830230150 16 180 0.0 0.0 0.00 0.41 0.00 93 1054.2
20260830230038 16 180 0.0 0.0 0.00 0.41 0.00 93 1054.1
20260830225924 16 157 0.0 0.0 0.00 0.41 0.00 93 1054.2
20260830225802 16 157 0.0 0.0 0.00 0.41 0.00 93 1054.3
20260830225642 16 157 0.0 0.0 0.00 0.41 0.00 93 1054.2
20260830225537 16 157 0.0 0.0 0.00 0.41 0.00 93 1054.3
20260830225416 16 180 0.0 0.0 0.00 0.41 0.00 93 1054.3
20260830225313 16 180 0.0 0.0 0.00 0.41 0.00 93 1054.3
20260830225159 16 180 0.0 0.0 0.00 0.41 0.00 93 1054.2
20260830225030 16 180 0.0 0.0 0.00 0.41 0.00 93 1054.4
20260830224908 16 180 0.0 0.0 0.00 0.41 0.00 93 1054.4
20260830224737 16 180 0.0 0.0 0.00 0.41 0.00 93 1054.4
20260830224626 16 180 0.0 0.0 0.00 0.41 0.00 93 1054.3
20260830224519 16 180 4.8 0.0 0.00 0.41 0.00 93 1054.4
20260830224406 16 180 0.0 0.0 0.00 0.41 0.00 93 1054.3
20260830224253 16 157 0.0 0.0 0.00 0.41 0.00 93 1054.3
20260830224131 16 202 0.0 0.0 0.00 0.41 0.00 93 1054.4
20260830224012 16 180 0.0 0.0 0.00 0.41 0.00 93 1054.4
20260830223906 16 180 0.0 0.0 0.00 0.41 0.00 93 1054.3
20260830223744 16 180 0.0 0.0 0.00 0.41 0.00 93 1054.4
20260830223625 16 180 0.0 0.0 0.00 0.41 0.00 93 1054.4
20260830223518 16 180 0.0 0.0 0.00 0.41 0.00 93 1054.4
20260830223405 16 180 0.0 0.0 0.00 0.41 0.00 93 1054.4
20260830223300 16 180 0.0 0.0 0.00 0.41 0.00 93 1054.5
20260830223130 16 180 0.0 0.0 0.00 0.41 0.00 93 1054.5
20260830223017 16 180 0.0 0.0 0.00 0.41 0.00 93 1054.5
20260830222912 16 180 0.0 0.0 0.00 0.41 0.00 93 1054.5
20260830222807 16 180 0.0 0.0 0.00 0.41 0.00 93 1054.4
20260830222656 16 157 0.0 0.0 0.00 0.41 0.00 93 1054.4
20260830222551 16 180 6.4 0.0 0.00 0.41 0.00 93 1054.4
20260830222444 16 180 0.0 0.0 0.00 0.41 0.00 93 1054.4
20260830222323 16 180 0.0 0.0 0.00 0.41 0.00 93 1054.4
20260830222210 16 180 0.0 0.0 0.00 0.41 0.00 93 1054.4
20260830222104 16 180 0.0 0.0 0.00 0.41 0.00 93 1054.4
20260830221951 16 180 0.0 0.0 0.00 0.41 0.00 93 1054.4
20260830221840 16 180 0.0 0.0 0.00 0.41 0.00 93 1054.4
20260830221725 16 180 0.0 0.0 0.00 0.41 0.00 93 1054.3
20260830221612 16 180 0.0 0.0 0.00 0.41 0.00 93 1054.4
20260830221508 16 157 0.0 0.0 0.00 0.41 0.00 93 1054.4
20260830221354 16 157 0.0 0.0 0.00 0.41 0.00 93 1054.4
20260830221233 16 157 0.0 0.0 0.00 0.41 0.00 93 1054.4
20260830221111 16 157 0.0 0.0 0.00 0.41 0.00 93 1054.5
20260830220950 16 180 8.0 0.0 0.00 0.41 0.00 93 1054.5
20260830220838 16 180 0.0 0.0 0.00 0.41 0.00 92 1054.4
20260830220732 16 180 0.0 0.0 0.00 0.41 0.00 92 1054.4
20260830220627 16 180 0.0 0.0 0.00 0.41 0.00 92 1054.6
20260830220516 16 180 0.0 0.0 0.00 0.41 0.00 92 1054.6
20260830220409 16 180 0.0 0.0 0.00 0.41 0.00 92 1054.6
20260830220249 16 180 0.0 0.0 0.00 0.41 0.00 92 1054.6
20260830220143 16 180 8.0 0.0 0.00 0.41 0.00 92 1054.7
20260830220030 16 180 0.0 0.0 0.00 0.41 0.00 92 1054.6
20260830215926 16 180 0.0 0.0 0.00 0.46 0.00 92 1054.6
20260830215820 16 180 0.0 0.0 0.00 0.46 0.00 92 1054.7
20260830215715 16 180 0.0 0.0 0.00 0.46 0.00 92 1054.6
20260830215555 16 180 6.4 0.0 0.00 0.46 0.00 92 1054.6
20260830215449 16 157 6.4 0.0 0.00 0.46 0.00 92 1054.6
20260830215344 16 157 0.0 0.0 0.00 0.46 0.00 92 1054.7
20260830215232 16 180 0.0 0.0 0.00 0.46 0.00 92 1054.8
20260830215126 16 180 0.0 0.0 0.00 0.46 0.00 92 1054.7
20260830215023 16 180 0.0 0.0 0.00 0.46 0.00 92 1054.8
20260830214915 16 180 0.0 0.0 0.00 0.46 0.00 92 1054.9
20260830214802 16 180 4.8 0.0 0.00 0.46 0.00 92 1054.9
20260830214649 16 180 0.0 0.0 0.00 0.46 0.00 92 1054.9
20260830214546 16 180 0.0 0.0 0.00 0.46 0.00 92 1054.9
20260830214441 16 180 0.0 0.0 0.00 0.46 0.00 92 1054.9
20260830214334 16 180 0.0 0.0 0.00 0.46 0.00 92 1054.9
20260830214213 16 180 0.0 0.0 0.00 0.46 0.00 92 1054.9
20260830214100 16 180 0.0 0.0 0.00 0.46 0.00 92 1054.8
20260830213954 16 180 0.0 0.0 0.00 0.46 0.00 92 1054.9
20260830213825 16 180 0.0 0.0 0.00 0.46 0.00 92 1054.9
20260830213712 16 180 0.0 0.0 0.00 0.46 0.00 92 1054.9
20260830213607 16 180 0.0 0.0 0.00 0.46 0.00 92 1054.9
20260830213454 16 180 0.0 0.0 0.00 0.46 0.00 92 1054.9
20260830213349 16 180 0.0 0.0 0.00 0.46 0.00 92 1054.9
20260830213238 16 180 0.0 0.0 0.00 0.46 0.00 92 1055.0
20260830213130 16 180 0.0 0.0 0.00 0.46 0.00 92 1054.9
20260830213017 16 180 0.0 0.0 0.00 0.46 0.00 91 1055.0
20260830212904 16 180 0.0 0.0 0.00 0.46 0.00 91 1055.0
20260830212758 16 180 0.0 0.0 0.00 0.46 0.00 91 1054.9
20260830212629 16 180 0.0 0.0 0.00 0.46 0.00 91 1054.9
20260830212516 16 180 1.6 0.0 0.00 0.46 0.00 91 1054.9
20260830212410 16 180 0.0 0.0 0.00 0.46 0.00 91 1054.9
20260830212306 16 180 0.0 0.0 0.00 0.46 0.00 91 1054.9
20260830212159 16 180 0.0 0.0 0.00 0.46 0.00 91 1054.9
20260830212052 16 180 0.0 0.0 0.00 0.46 0.00 91 1054.8
20260830211931 16 180 0.0 0.0 0.00 0.46 0.00 91 1054.8
20260830211817 16 180 1.6 0.0 0.00 0.46 0.00 91 1054.9
20260830211710 16 180 0.0 0.0 0.00 0.46 0.00 91 1054.9
20260830211555 16 157 6.4 0.0 0.00 0.46 0.00 91 1055.0
20260830211435 16 180 0.0 0.0 0.00 0.46 0.00 91 1054.8
20260830211322 16 202 0.0 0.0 0.00 0.46 0.00 91 1055.0
20260830211208 16 202 0.0 0.0 0.00 0.46 0.00 91 1054.9
20260830211102 16 202 0.0 0.0 0.00 0.46 0.00 91 1054.8
20260830210948 16 202 0.0 0.0 0.00 0.46 0.00 91 1055.0
20260830210826 16 202 0.0 0.0 0.00 0.46 0.00 91 1055.0
20260830210713 16 202 0.0 0.0 0.00 0.46 0.00 91 1055.0
20260830210607 16 202 0.0 0.0 0.00 0.46 0.00 91 1054.9
20260830210502 17 202 0.0 0.0 0.00 0.46 0.00 91 1054.8
20260830210356 17 202 0.0 0.0 0.00 0.46 0.00 91 1054.9
20260830210244 17 202 0.0 0.0 0.00 0.46 0.00 91 1054.9
20260830210122 17 202 0.0 0.0 0.00 0.46 0.00 91 1054.8
20260830210007 17 202 0.0 0.0 0.00 0.51 0.00 91 1054.7
20260830205837 17 180 0.0 0.0 0.00 0.51 0.00 91 1054.7
20260830205720 17 180 0.0 0.0 0.00 0.51 0.00 91 1054.7
20260830205615 17 180 0.0 0.0 0.00 0.51 0.00 91 1054.7
20260830205508 17 180 0.0 0.0 0.00 0.51 0.00 91 1054.6
20260830205346 17 180 0.0 0.0 0.00 0.51 0.00 91 1054.7
20260830205233 17 180 0.0 0.0 0.00 0.51 0.00 91 1054.8
20260830205126 17 180 0.0 0.0 0.00 0.51 0.00 91 1054.8
20260830205012 17 180 0.0 0.0 0.00 0.51 0.00 91 1054.7
20260830204905 17 202 0.0 0.0 0.00 0.51 0.00 91 1054.7
20260830204800 17 180 0.0 0.0 0.00 0.51 0.00 91 1054.7
20260830204654 17 202 0.0 0.0 0.00 0.51 0.00 91 1054.6
20260830204547 17 202 0.0 0.0 0.00 0.51 0.00 91 1054.7
20260830204442 17 202 0.0 0.0 0.00 0.51 0.00 91 1054.6
20260830204329 17 202 0.0 0.0 0.00 0.51 0.00 91 1054.7
20260830204209 17 202 0.0 0.0 0.00 0.51 0.00 91 1054.7
20260830204105 17 202 0.0 0.0 0.00 0.51 0.00 91 1054.8
20260830203957 17 202 0.0 0.0 0.00 0.51 0.00 91 1054.8
20260830203845 17 202 0.0 0.0 0.00 0.51 0.00 91 1054.8
20260830203739 17 202 0.0 0.0 0.00 0.51 0.00 91 1055.0
20260830203634 17 202 0.0 0.0 0.00 0.51 0.00 91 1054.9
20260830203520 17 202 8.0 0.0 0.00 0.51 0.00 91 1055.0
20260830203408 17 202 1.6 0.0 0.00 0.51 0.00 91 1055.0
20260830203301 17 202 9.7 0.0 0.00 0.51 0.00 91 1054.9
20260830203138 17 202 0.0 0.0 0.00 0.51 0.00 91 1054.8
20260830203016 17 202 3.2 0.0 0.00 0.51 0.00 91 1054.8
20260830202855 17 202 8.0 0.0 0.00 0.51 0.00 91 1054.8
20260830202734 17 202 0.0 0.0 0.00 0.51 0.00 91 1054.8
20260830202629 17 202 0.0 0.0 0.00 0.51 0.00 91 1054.8
20260830202515 17 202 0.0 0.0 0.00 0.51 0.00 91 1054.8
20260830202401 17 202 0.0 0.0 0.00 0.51 0.00 91 1054.8
20260830202255 17 202 0.0 0.0 0.00 0.51 0.00 91 1055.0
20260830202148 17 202 0.0 0.0 0.00 0.51 0.00 91 1055.0
20260830202028 17 202 0.0 0.0 0.00 0.51 0.00 91 1055.0
20260830201920 17 202 0.0 0.0 0.00 0.51 0.00 91 1055.0
20260830201757 17 202 0.0 0.0 0.00 0.51 0.00 91 1055.0
20260830201628 17 202 0.0 0.0 0.00 0.51 0.00 91 1055.0
20260830201515 17 202 0.0 0.0 0.00 0.51 0.00 91 1054.9
20260830201402 17 202 0.0 0.0 0.00 0.51 0.00 91 1055.0
20260830201257 17 202 1.6 0.0 0.00 0.51 0.00 91 1055.0
20260830201142 17 202 3.2 0.0 0.00 0.51 0.00 91 1055.0
20260830201036 17 202 0.0 0.0 0.00 0.51 0.00 91 1055.0
20260830200914 17 202 6.4 0.0 0.00 0.51 0.00 91 1054.9
20260830200753 17 202 0.0 0.0 0.00 0.51 0.00 90 1055.1
20260830200640 17 202 0.0 0.0 0.00 0.51 0.00 90 1055.0
20260830200527 17 202 0.0 0.0 0.00 0.51 0.00 90 1055.0
20260830200421 17 202 0.0 0.0 0.00 0.51 0.00 90 1055.0
20260830200316 17 202 0.0 0.0 0.00 0.51 0.00 90 1055.0
20260830200155 17 202 0.0 0.0 0.00 0.51 0.00 90 1055.1
20260830200040 17 202 0.0 0.0 0.00 0.51 0.00 90 1055.1
20260830195935 17 202 0.0 0.0 0.00 0.51 0.00 90 1055.1
20260830195821 17 202 0.0 0.0 0.00 0.51 0.00 90 1055.1
20260830195711 17 202 0.0 0.0 0.00 0.51 0.00 90 1055.1
20260830195604 17 202 0.0 0.0 0.00 0.51 0.00 90 1055.1
20260830195450 17 202 0.0 0.0 0.00 0.51 0.00 90 1055.1
20260830195329 17 225 0.0 0.0 0.00 0.51 0.00 90 1055.1
20260830195214 17 247 0.0 0.0 0.00 0.51 0.00 90 1055.1
20260830195102 17 247 0.0 0.0 0.00 0.51 0.00 89 1055.1
20260830194949 17 247 0.0 0.0 0.00 0.51 0.00 89 1055.1
20260830194836 17 247 0.0 0.0 0.00 0.51 0.00 89 1055.1
20260830194722 17 247 0.0 0.0 0.00 0.51 0.00 89 1055.1
20260830194602 17 247 0.0 0.0 0.00 0.51 0.00 89 1055.1
20260830194458 17 247 0.0 0.0 0.00 0.51 0.00 89 1055.1
20260830194351 17 247 0.0 0.0 0.00 0.51 0.00 89 1055.1
20260830194221 17 247 0.0 0.0 0.00 0.51 0.00 89 1055.1
20260830194111 17 247 0.0 0.0 0.00 0.51 0.00 89 1055.1
20260830194003 17 247 0.0 0.0 0.00 0.51 0.00 89 1055.1
20260830193850 17 247 0.0 0.0 0.00 0.51 0.00 89 1055.1
20260830193746 17 247 0.0 0.0 0.00 0.51 0.00 89 1055.1
20260830193641 17 247 0.0 0.0 0.00 0.51 0.00 89 1055.1
20260830193535 17 247 0.0 0.0 0.00 0.51 0.00 89 1055.1
20260830193430 17 247 0.0 0.0 0.00 0.51 0.00 89 1055.1
20260830193308 17 247 0.0 0.0 0.00 0.51 0.00 89 1055.2
20260830193155 17 247 0.0 0.0 0.00 0.51 0.00 89 1055.2
20260830193043 17 247 0.0 0.0 0.00 0.51 0.00 89 1055.2
20260830192937 17 247 0.0 0.0 0.00 0.51 0.00 89 1055.2
20260830192825 17 247 0.0 0.0 0.00 0.51 0.00 89 1055.2
20260830192712 17 247 0.0 0.0 0.00 0.51 0.00 89 1055.2
20260830192558 17 247 0.0 0.0 0.00 0.51 0.00 89 1055.2
20260830192446 17 247 0.0 0.0 0.00 0.51 0.00 89 1055.2
20260830192340 17 247 0.0 0.0 0.00 0.51 0.00 89 1055.2
20260830192228 17 247 0.0 0.0 0.00 0.51 0.00 89 1055.2
20260830192122 17 247 0.0 0.0 0.00 0.51 0.00 89 1055.2
20260830192001 17 247 0.0 0.0 0.00 0.51 0.00 89 1055.2
20260830191858 17 247 0.0 0.0 0.00 0.51 0.00 89 1055.3
20260830191751 17 247 0.0 0.0 0.00 0.51 0.00 89 1055.3
20260830191637 17 247 0.0 0.0 0.00 0.51 0.00 89 1055.3
20260830191516 17 247 0.0 0.0 0.00 0.51 0.00 89 1055.3
20260830191406 17 247 0.0 0.0 0.00 0.51 0.00 89 1055.3
20260830191259 17 247 0.0 0.0 0.00 0.51 0.00 89 1055.2
20260830191146 17 247 0.0 0.0 0.00 0.51 0.00 88 1055.3
20260830191040 17 247 0.0 0.0 0.00 0.51 0.00 88 1055.3
20260830190935 17 247 0.0 0.0 0.00 0.51 0.00 88 1055.2
20260830190759 17 247 0.0 0.0 0.00 0.51 0.00 88 1055.2
20260830190653 17 247 0.0 0.0 0.00 0.51 0.00 88 1055.3
20260830190548 17 247 0.0 0.0 0.00 0.51 0.00 88 1055.2
20260830190437 17 247 0.0 0.0 0.00 0.51 0.00 88 1055.4
20260830190330 17 247 0.0 0.0 0.00 0.51 0.00 88 1055.4
20260830190216 17 247 0.0 0.0 0.00 0.51 0.00 88 1055.3
20260830190056 17 247 0.0 0.0 0.00 0.51 0.00 88 1055.3
20260830185951 17 247 0.0 0.0 0.00 0.51 0.00 88 1055.2
20260830185845 17 225 0.0 0.0 0.00 0.51 0.00 88 1055.2
20260830185724 17 225 0.0 0.0 0.00 0.51 0.00 88 1055.2
20260830185602 17 225 0.0 0.0 0.00 0.51 0.00 87 1055.3
20260830185434 18 247 1.6 0.0 0.00 0.51 0.00 87 1055.2
20260830185320 18 247 0.0 0.0 0.00 0.51 0.00 87 1055.2
20260830185215 18 247 0.0 0.0 0.00 0.51 0.00 87 1055.2
20260830185054 18 247 3.2 0.0 0.00 0.51 0.00 87 1055.2
20260830184933 18 247 0.0 0.0 0.00 0.51 0.00 87 1055.2
20260830184819 18 270 4.8 0.0 0.00 0.51 0.00 87 1055.2
20260830184658 18 292 3.2 0.0 0.00 0.51 0.00 87 1055.3
20260830184546 18 247 0.0 0.0 0.00 0.51 0.00 86 1055.2
20260830184432 18 247 4.8 0.0 0.00 0.51 0.00 86 1055.2
20260830184319 18 270 0.0 0.0 0.00 0.51 0.00 86 1055.2
20260830184204 18 270 0.0 0.0 0.00 0.51 0.00 85 1055.2
20260830184050 18 315 3.2 0.0 0.00 0.51 0.00 85 1055.2
20260830183921 18 225 6.4 0.0 0.00 0.51 0.00 85 1055.2
20260830183800 18 292 6.4 0.0 0.00 0.51 0.00 85 1055.2
20260830183639 18 270 0.0 0.0 0.00 0.51 0.00 85 1055.2
20260830183534 18 270 0.0 0.0 0.00 0.51 0.00 84 1055.2
20260830183420 18 247 0.0 0.0 0.00 0.51 0.00 84 1055.1
20260830183252 18 247 0.0 0.0 0.00 0.51 0.00 84 1055.2
20260830183140 18 247 0.0 0.0 0.00 0.51 0.00 84 1055.2
20260830183032 18 202 0.0 0.0 0.00 0.51 0.00 84 1055.2
20260830182912 18 202 0.0 0.0 0.00 0.51 0.00 84 1055.2
20260830182750 18 180 0.0 0.0 0.00 0.51 0.00 83 1055.2
20260830182629 19 270 0.0 0.0 0.00 0.51 0.00 83 1055.1
20260830182508 19 270 0.0 0.0 0.00 0.51 0.00 83 1055.0
20260830182401 19 270 0.0 0.0 0.00 0.51 0.00 83 1055.0
20260830182234 19 270 0.0 0.0 0.00 0.51 0.00 83 1055.1
20260830182130 19 270 0.0 0.0 0.00 0.51 0.00 83 1055.0
20260830182022 19 247 0.0 0.0 0.00 0.51 0.00 83 1055.0
20260830181909 19 247 0.0 0.0 0.00 0.51 0.00 83 1055.0
20260830181757 19 247 0.0 0.0 0.00 0.51 0.00 83 1055.0
20260830181635 19 270 0.0 0.0 0.00 0.51 0.00 83 1054.9
20260830181521 19 270 0.0 0.0 0.00 0.51 0.00 83 1054.9
20260830181354 19 270 0.0 0.0 0.00 0.51 0.00 83 1054.9
20260830181249 19 270 0.0 0.0 0.00 0.51 0.00 83 1054.8
20260830181141 19 270 0.0 0.0 0.00 0.51 0.00 83 1054.8
20260830181029 19 270 0.0 0.0 0.00 0.51 0.00 83 1055.0
20260830180918 19 247 0.0 0.0 0.00 0.51 0.00 83 1054.8
20260830180813 19 270 0.0 0.0 0.00 0.51 0.00 83 1054.9
20260830180707 19 247 0.0 0.0 0.00 0.51 0.00 83 1054.9
20260830180603 19 247 0.0 0.0 0.00 0.51 0.00 83 1054.8
20260830180456 19 247 0.0 0.0 0.00 0.51 0.00 82 1054.8
20260830180337 19 247 0.0 0.0 0.00 0.51 0.00 82 1054.9
20260830180230 19 247 0.0 0.0 0.00 0.51 0.00 82 1054.9
20260830180116 19 247 0.0 0.0 0.00 0.51 0.00 82 1054.9
20260830175956 19 247 0.0 0.0 0.00 0.51 0.00 82 1054.9
20260830175850 19 270 0.0 0.0 0.00 0.51 0.00 82 1054.9
20260830175729 19 270 0.0 0.0 0.00 0.51 0.00 82 1054.9
20260830175607 19 270 0.0 0.0 0.00 0.51 0.00 82 1054.8
20260830175446 19 270 0.0 0.0 0.00 0.51 0.00 82 1054.8
20260830175326 19 270 0.0 0.0 0.00 0.51 0.00 82 1054.7
20260830175213 19 270 0.0 0.0 0.00 0.51 0.00 82 1054.8
20260830175059 19 270 0.0 0.0 0.00 0.51 0.00 82 1054.8
20260830174937 19 270 0.0 0.0 0.00 0.51 0.00 82 1054.8
20260830174816 19 270 0.0 0.0 0.00 0.51 0.00 82 1054.7
20260830174647 19 270 0.0 0.0 0.00 0.51 0.00 81 1054.8
20260830174535 19 247 0.0 0.0 0.00 0.51 0.00 81 1054.8
20260830174430 20 270 0.0 0.0 0.00 0.51 0.00 81 1054.8
20260830174324 20 270 0.0 0.0 0.00 0.51 0.00 81 1054.7
20260830174213 20 270 0.0 0.0 0.00 0.51 0.00 81 1054.8
20260830174106 20 270 0.0 0.0 0.00 0.51 0.00 81 1054.8
20260830173945 20 270 0.0 0.0 0.00 0.51 0.00 81 1054.7
20260830173831 20 270 0.0 0.0 0.00 0.51 0.00 81 1054.7
20260830173712 20 247 0.0 0.0 0.00 0.51 0.00 81 1054.7
20260830173607 20 247 0.0 0.0 0.00 0.51 0.00 81 1054.8
20260830173452 20 247 0.0 0.0 0.00 0.51 0.00 81 1054.8
20260830173340 20 247 0.0 0.0 0.00 0.51 0.00 81 1054.8
20260830173234 20 247 0.0 0.0 0.00 0.51 0.00 81 1054.8
20260830173105 20 247 0.0 0.0 0.00 0.51 0.00 81 1054.8
20260830172945 20 270 0.0 0.0 0.00 0.51 0.00 80 1054.8
20260830172830 20 247 0.0 0.0 0.00 0.51 0.00 80 1054.8
20260830172718 20 270 0.0 0.0 0.00 0.51 0.00 80 1054.8
20260830172612 20 270 0.0 0.0 0.00 0.51 0.00 80 1054.8
20260830172459 20 270 0.0 0.0 0.00 0.51 0.00 80 1054.9
20260830172355 20 270 0.0 0.0 0.00 0.51 0.00 80 1054.8
20260830172242 20 247 0.0 0.0 0.00 0.51 0.00 80 1055.0
20260830172126 20 247 6.4 0.0 0.00 0.51 0.00 79 1054.9
20260830172003 20 247 0.0 0.0 0.00 0.51 0.00 79 1054.8
20260830171831 20 247 0.0 0.0 0.00 0.51 0.00 79 1054.8
20260830171718 20 270 3.2 0.0 0.00 0.51 0.00 79 1054.9
20260830171602 20 202 0.0 0.0 0.00 0.51 0.00 79 1054.9
20260830171442 20 225 8.0 0.0 0.00 0.51 0.00 79 1054.8
20260830171335 20 270 4.8 0.0 0.00 0.51 0.00 79 1054.8
20260830171221 20 270 0.0 0.0 0.00 0.51 0.00 78 1054.9
20260830171115 20 270 0.0 0.0 0.00 0.51 0.00 78 1054.8
20260830171000 20 247 0.0 0.0 0.00 0.51 0.00 78 1054.8
20260830170838 20 270 0.0 0.0 0.00 0.51 0.00 78 1054.8
20260830170724 20 270 0.0 0.0 0.00 0.51 0.00 78 1054.9
20260830170610 20 292 3.2 0.0 0.00 0.51 0.00 78 1054.9
20260830170458 20 270 3.2 0.0 0.00 0.51 0.00 78 1054.9
20260830170351 20 270 4.8 0.0 0.00 0.51 0.00 78 1054.9
20260830170240 20 247 0.0 0.0 0.00 0.51 0.00 78 1054.9
20260830170125 20 270 0.0 0.0 0.00 0.51 0.00 78 1054.9
20260830170013 20 292 4.8 0.0 0.00 0.51 0.00 78 1054.8
20260830165909 20 292 8.0 0.0 0.00 0.51 0.00 78 1054.8
20260830165801 20 247 0.0 0.0 0.00 0.51 0.00 78 1054.7
20260830165640 20 270 0.0 0.0 0.00 0.51 0.00 77 1054.8
20260830165529 20 270 0.0 0.0 0.00 0.51 0.00 77 1054.9
20260830165422 20 292 0.0 0.0 0.00 0.51 0.00 77 1054.9
20260830165317 20 315 4.8 0.0 0.00 0.51 0.00 77 1054.8
20260830165211 20 270 6.4 0.0 0.00 0.51 0.00 77 1054.8
20260830165050 20 292 6.4 0.0 0.00 0.51 0.00 77 1054.8
20260830164937 20 292 8.0 0.0 0.00 0.51 0.00 77 1054.8
20260830164824 20 292 8.0 0.0 0.00 0.51 0.00 77 1054.8
20260830164703 20 270 3.2 0.0 0.00 0.51 0.00 77 1054.8
20260830164552 20 292 0.0 0.0 0.00 0.51 0.00 77 1054.8
20260830164444 20 292 0.0 0.0 0.00 0.51 0.00 77 1054.8
20260830164324 21 270 3.2 0.0 0.00 0.51 0.00 77 1054.7
20260830164212 21 270 9.7 0.0 0.00 0.51 0.00 77 1054.7
20260830164057 21 292 6.4 0.0 0.00 0.51 0.00 77 1054.7
20260830163944 21 292 3.2 0.0 0.00 0.51 0.00 77 1054.6
20260830163830 21 270 3.2 0.0 0.00 0.51 0.00 77 1054.7
20260830163701 21 247 0.0 0.0 0.00 0.51 0.00 77 1054.7
20260830163542 21 270 4.8 0.0 0.00 0.51 0.00 77 1054.8
20260830163436 21 247 6.4 0.0 0.00 0.51 0.00 77 1054.8
20260830163325 21 270 4.8 0.0 0.00 0.51 0.00 77 1054.7
20260830163220 21 270 3.2 0.0 0.00 0.51 0.00 77 1054.8
20260830163112 21 270 0.0 0.0 0.00 0.51 0.00 77 1054.8
20260830162959 21 270 0.0 0.0 0.00 0.51 0.00 77 1054.7
20260830162846 21 225 0.0 0.0 0.00 0.51 0.00 76 1054.7
20260830162733 21 270 0.0 0.0 0.00 0.51 0.00 76 1054.7
20260830162619 21 270 0.0 0.0 0.00 0.51 0.00 76 1054.7
20260830162506 21 270 0.0 0.0 0.00 0.51 0.00 76 1054.7
20260830162353 21 202 0.0 0.0 0.00 0.51 0.00 76 1054.7
20260830162232 21 292 9.7 0.0 0.00 0.51 0.00 76 1054.7
20260830162119 21 270 0.0 0.0 0.00 0.51 0.00 76 1054.6
20260830161958 21 247 3.2 0.0 0.00 0.51 0.00 76 1054.7
20260830161853 21 270 0.0 0.0 0.00 0.51 0.00 76 1054.6
20260830161731 21 270 1.6 0.0 0.00 0.51 0.00 76 1054.7
20260830161620 21 292 4.8 0.0 0.00 0.51 0.00 76 1054.6
20260830161514 21 270 8.0 0.0 0.00 0.51 0.00 75 1054.6
20260830161352 21 292 4.8 0.0 0.00 0.51 0.00 75 1054.7
20260830161231 21 225 0.0 0.0 0.00 0.51 0.00 75 1054.7
20260830161110 21 292 4.8 0.0 0.00 0.51 0.00 75 1054.7
20260830161005 21 270 8.0 0.0 0.00 0.51 0.00 75 1054.7
20260830160851 21 292 0.0 0.0 0.00 0.51 0.00 75 1054.7
20260830160732 21 270 0.0 0.0 0.00 0.51 0.00 75 1054.6
20260830160625 21 270 0.0 0.0 0.00 0.51 0.00 75 1054.6
20260830160512 21 270 6.4 0.0 0.00 0.51 0.00 75 1054.6
20260830160400 21 292 8.0 0.0 0.00 0.51 0.00 75 1054.7
20260830160246 21 247 6.4 0.0 0.00 0.51 0.00 74 1054.6
20260830160124 21 225 4.8 0.0 0.00 0.51 0.00 74 1054.6
20260830160004 21 247 0.0 0.0 0.00 0.51 0.00 74 1054.7
20260830155900 21 292 0.0 0.0 0.00 0.51 0.00 74 1054.6
20260830155754 21 270 3.2 0.0 0.00 0.51 0.00 74 1054.6
20260830155640 21 270 0.0 0.0 0.00 0.51 0.00 74 1054.6
20260830155527 21 247 8.0 0.0 0.00 0.51 0.00 75 1054.6
20260830155414 21 247 3.2 0.0 0.00 0.51 0.00 75 1054.6
20260830155309 21 270 4.8 0.0 0.00 0.51 0.00 75 1054.6
20260830155150 21 247 9.7 0.0 0.00 0.51 0.00 76 1054.6
20260830155034 21 292 8.0 0.0 0.00 0.51 0.00 76 1054.6
20260830154924 21 270 6.4 0.0 0.00 0.51 0.00 77 1054.6
20260830154817 21 270 3.2 0.0 0.00 0.51 0.00 77 1054.5
20260830154713 21 292 0.0 0.0 0.00 0.51 0.00 76 1054.6
20260830154606 21 292 9.7 0.0 0.00 0.51 0.00 76 1054.7
20260830154436 21 270 6.4 0.0 0.00 0.51 0.00 76 1054.6
20260830154325 21 270 3.2 0.0 0.00 0.51 0.00 76 1054.7
20260830154219 21 270 8.0 0.0 0.00 0.51 0.00 76 1054.6
20260830154057 21 247 8.0 0.0 0.00 0.51 0.00 76 1054.5
20260830153944 21 292 9.7 0.0 0.00 0.51 0.00 76 1054.6
20260830153832 21 292 6.4 0.0 0.00 0.51 0.00 76 1054.6
20260830153718 21 337 6.4 0.0 0.00 0.51 0.00 76 1054.6
20260830153607 21 270 11.3 0.0 0.00 0.51 0.00 76 1054.5
20260830153452 21 270 8.0 0.0 0.00 0.51 0.00 75 1054.6
20260830153339 21 247 9.7 0.0 0.00 0.51 0.00 75 1054.5
20260830153219 21 270 6.4 0.0 0.00 0.51 0.00 75 1054.5
20260830153105 21 292 12.9 0.0 0.00 0.51 0.00 76 1054.6
20260830152952 21 292 0.0 0.0 0.00 0.51 0.00 76 1054.6
20260830152847 21 247 6.4 0.0 0.00 0.51 0.00 76 1054.7
20260830152727 21 270 6.4 0.0 0.00 0.51 0.00 75 1054.6
20260830152612 21 247 9.7 0.0 0.00 0.51 0.00 75 1054.7
20260830152451 21 292 6.4 0.0 0.00 0.51 0.00 75 1054.8
20260830152329 21 270 6.4 0.0 0.00 0.51 0.00 75 1054.7
20260830152210 21 270 3.2 0.0 0.00 0.51 0.00 75 1054.7
20260830152057 21 315 0.0 0.0 0.00 0.51 0.00 74 1054.8
20260830151952 21 270 8.0 0.0 0.00 0.51 0.00 74 1054.6
20260830151845 21 337 8.0 0.0 0.00 0.51 0.00 74 1054.7
20260830151732 21 270 8.0 0.0 0.00 0.51 0.00 74 1054.6
20260830151620 21 292 0.0 0.0 0.00 0.51 0.00 73 1054.6
20260830151515 21 292 3.2 0.0 0.00 0.51 0.00 73 1054.6
20260830151409 21 292 9.7 0.0 0.00 0.51 0.00 73 1054.6
20260830151302 21 270 8.0 0.0 0.00 0.51 0.00 73 1054.7
20260830151156 21 270 6.4 0.0 0.00 0.51 0.00 73 1054.8
20260830151042 21 0 0.0 0.0 0.00 0.51 0.00 72 1054.7
20260830150929 21 270 8.0 0.0 0.00 0.51 0.00 72 1054.7
20260830150816 22 247 9.7 0.0 0.00 0.51 0.00 72 1054.7
20260830150703 22 292 9.7 0.0 0.00 0.51 0.00 72 1054.8
20260830150557 22 315 4.8 0.0 0.00 0.51 0.00 72 1054.7
20260830150447 22 270 6.4 0.0 0.00 0.51 0.00 72 1054.7
20260830150338 22 292 6.4 0.0 0.00 0.51 0.00 72 1054.6
20260830150220 22 292 6.4 0.0 0.00 0.51 0.00 72 1054.6
20260830150112 22 315 6.4 0.0 0.00 0.51 0.00 71 1054.7
20260830150000 22 292 8.0 0.0 0.00 0.51 0.00 71 1054.6
20260830145840 22 292 11.3 0.0 0.00 0.51 0.00 71 1054.7
20260830145725 22 315 14.5 0.0 0.00 0.51 0.00 71 1054.5
20260830145613 22 270 4.8 0.0 0.00 0.51 0.00 71 1054.5
20260830145459 22 315 4.8 0.0 0.00 0.51 0.00 71 1054.6
20260830145339 22 0 0.0 0.0 0.00 0.51 0.00 70 1054.7
20260830145234 22 315 6.4 0.0 0.00 0.51 0.00 70 1054.6
20260830145120 22 337 0.0 0.0 0.00 0.51 0.00 70 1054.6
20260830145016 22 270 9.7 0.0 0.00 0.51 0.00 70 1054.6
20260830144911 23 247 9.7 0.0 0.00 0.51 0.00 70 1054.6
20260830144805 23 292 3.2 0.0 0.00 0.51 0.00 69 1054.7
20260830144651 23 292 0.0 0.0 0.00 0.51 0.00 69 1054.6
20260830144531 23 315 12.9 0.0 0.00 0.51 0.00 69 1054.4
20260830144409 23 270 0.0 0.0 0.00 0.51 0.00 69 1054.5
20260830144248 23 315 4.8 0.0 0.00 0.51 0.00 69 1054.4
20260830144135 23 337 4.8 0.0 0.00 0.51 0.00 69 1054.3
20260830144016 23 270 4.8 0.0 0.00 0.51 0.00 69 1054.4
20260830143901 23 270 6.4 0.0 0.00 0.51 0.00 70 1054.4
20260830143748 23 315 0.0 0.0 0.00 0.51 0.00 70 1054.4
20260830143635 23 270 8.0 0.0 0.00 0.51 0.00 71 1054.3
20260830143513 23 270 6.4 0.0 0.00 0.51 0.00 71 1054.3
20260830143401 23 337 1.6 0.0 0.00 0.51 0.00 71 1054.3
20260830143256 23 270 6.4 0.0 0.00 0.51 0.00 71 1054.3
20260830143151 23 315 6.4 0.0 0.00 0.51 0.00 71 1054.3
20260830143045 22 292 6.4 0.0 0.00 0.51 0.00 70 1054.2
20260830142916 22 247 11.3 0.0 0.00 0.51 0.00 70 1054.3
20260830142754 22 270 11.3 0.0 0.00 0.51 0.00 70 1054.3
20260830142634 22 315 0.0 0.0 0.00 0.51 0.00 70 1054.2
20260830142520 22 270 11.3 0.0 0.00 0.51 0.00 70 1054.3
20260830142352 22 292 9.7 0.0 0.00 0.51 0.00 71 1054.3
20260830142229 22 270 0.0 0.0 0.00 0.51 0.00 71 1054.4
20260830142110 22 292 9.7 0.0 0.00 0.51 0.00 70 1054.4
20260830142006 22 270 20.9 0.0 0.00 0.51 0.00 70 1054.4
20260830141858 22 270 0.0 0.0 0.00 0.51 0.00 70 1054.4
20260830141737 22 292 9.7 0.0 0.00 0.51 0.00 70 1054.3
20260830141616 22 270 8.0 0.0 0.00 0.51 0.00 70 1054.3
20260830141513 22 247 3.2 0.0 0.00 0.51 0.00 70 1054.3
20260830141406 22 292 9.7 0.0 0.00 0.51 0.00 71 1054.3
20260830141244 22 292 9.7 0.0 0.00 0.51 0.00 71 1054.3
20260830141125 22 337 8.0 0.0 0.00 0.51 0.00 71 1054.4
20260830141018 22 315 8.0 0.0 0.00 0.51 0.00 70 1054.4
20260830140906 22 292 4.8 0.0 0.00 0.51 0.00 70 1054.4
20260830140801 22 270 6.4 0.0 0.00 0.51 0.00 69 1054.2
20260830140649 22 315 9.7 0.0 0.00 0.51 0.00 69 1054.3
20260830140544 22 315 4.8 0.0 0.00 0.51 0.00 69 1054.1
20260830140437 22 270 16.1 0.0 0.00 0.51 0.00 69 1054.3
20260830140324 22 315 12.9 0.0 0.00 0.51 0.00 70 1054.2
20260830140211 22 337 11.3 0.0 0.00 0.51 0.00 70 1054.4
20260830140058 22 292 9.7 0.0 0.00 0.51 0.00 71 1054.3
20260830135944 22 270 11.3 0.0 0.00 0.51 0.00 71 1054.3
20260830135825 22 292 11.3 0.0 0.00 0.51 0.00 71 1054.3
20260830135719 22 337 9.7 0.0 0.00 0.51 0.00 71 1054.3
20260830135606 22 292 6.4 0.0 0.00 0.51 0.00 71 1054.2
20260830135500 22 315 11.3 0.0 0.00 0.51 0.00 71 1054.2
20260830135331 22 292 3.2 0.0 0.00 0.51 0.00 71 1054.2
20260830135218 22 292 8.0 0.0 0.00 0.51 0.00 71 1054.2
20260830135113 22 292 8.0 0.0 0.00 0.51 0.00 71 1054.3
20260830135002 22 292 11.3 0.0 0.00 0.51 0.00 72 1054.1
20260830134857 22 247 3.2 0.0 0.00 0.51 0.00 72 1054.0
20260830134743 22 315 12.9 0.0 0.00 0.51 0.00 72 1054.1
20260830134637 22 315 6.4 0.0 0.00 0.51 0.00 72 1054.0
20260830134533 22 270 6.4 0.0 0.00 0.51 0.00 71 1054.1
20260830134419 22 292 6.4 0.0 0.00 0.51 0.00 71 1054.0
20260830134306 22 315 9.7 0.0 0.00 0.51 0.00 71 1054.1
20260830134200 22 270 8.0 0.0 0.00 0.51 0.00 71 1054.0
20260830134047 22 270 8.0 0.0 0.00 0.51 0.00 71 1054.1
20260830133936 22 270 11.3 0.0 0.00 0.51 0.00 71 1054.0
20260830133829 22 247 4.8 0.0 0.00 0.51 0.00 70 1054.0
20260830133702 22 292 6.4 0.0 0.00 0.51 0.00 70 1053.9
20260830133554 22 270 9.7 0.0 0.00 0.51 0.00 70 1054.0
20260830133434 22 315 11.3 0.0 0.00 0.51 0.00 70 1054.0
20260830133320 22 315 9.7 0.0 0.00 0.51 0.00 70 1054.0
20260830133151 22 315 12.9 0.0 0.00 0.51 0.00 71 1053.9
20260830133038 22 292 6.4 0.0 0.00 0.51 0.00 71 1053.9
20260830132916 22 337 11.3 0.0 0.00 0.51 0.00 71 1054.0
20260830132755 22 337 6.4 0.0 0.00 0.51 0.00 71 1053.9
20260830132627 22 315 11.3 0.0 0.00 0.51 0.00 72 1054.0
20260830132521 22 315 4.8 0.0 0.00 0.51 0.00 71 1054.0
20260830132408 22 292 8.0 0.0 0.00 0.51 0.00 71 1054.0
20260830132256 22 292 0.0 0.0 0.00 0.51 0.00 71 1054.0
20260830132150 22 315 4.8 0.0 0.00 0.51 0.00 71 1053.9
20260830132028 22 337 0.0 0.0 0.00 0.51 0.00 70 1054.0
20260830131916 22 337 4.8 0.0 0.00 0.51 0.00 70 1053.9
20260830131809 22 315 9.7 0.0 0.00 0.51 0.00 70 1053.9
20260830131658 22 270 8.0 0.0 0.00 0.51 0.00 70 1053.9
20260830131551 22 270 6.4 0.0 0.00 0.51 0.00 70 1053.9
20260830131439 22 270 6.4 0.0 0.00 0.51 0.00 70 1053.9
20260830131327 22 270 0.0 0.0 0.00 0.51 0.00 69 1053.8
20260830131223 22 292 11.3 0.0 0.00 0.51 0.00 70 1053.8
20260830131119 22 337 4.8 0.0 0.00 0.51 0.00 69 1053.8
20260830131011 22 315 3.2 0.0 0.00 0.51 0.00 69 1053.8
20260830130859 22 270 4.8 0.0 0.00 0.51 0.00 70 1053.8
20260830130752 22 315 9.7 0.0 0.00 0.51 0.00 70 1053.8
20260830130640 22 292 8.0 0.0 0.00 0.51 0.00 70 1053.9
20260830130520 22 315 6.4 0.0 0.00 0.51 0.00 70 1053.9
20260830130416 22 315 4.8 0.0 0.00 0.51 0.00 69 1053.8
20260830130308 23 315 8.0 0.0 0.00 0.51 0.00 69 1053.8
20260830130156 23 337 0.0 0.0 0.00 0.51 0.00 68 1053.8
20260830130050 23 315 3.2 0.0 0.00 0.51 0.00 67 1053.8
20260830125921 23 292 3.2 0.0 0.00 0.51 0.00 67 1053.9
20260830125808 23 315 3.2 0.0 0.00 0.51 0.00 67 1053.8
20260830125655 23 315 14.5 0.0 0.00 0.51 0.00 67 1053.8
20260830125542 23 292 3.2 0.0 0.00 0.51 0.00 67 1053.8
20260830125428 23 315 9.7 0.0 0.00 0.51 0.00 67 1053.8
20260830125315 23 292 0.0 0.0 0.00 0.51 0.00 66 1053.8
20260830125205 23 315 0.0 0.0 0.00 0.51 0.00 66 1053.8
20260830125059 23 270 8.0 0.0 0.00 0.51 0.00 66 1053.8
20260830124945 24 337 9.7 0.0 0.00 0.51 0.00 66 1053.8
20260830124839 24 292 8.0 0.0 0.00 0.51 0.00 65 1053.8
20260830124727 24 292 14.5 0.0 0.00 0.51 0.00 64 1053.9
20260830124621 24 270 12.9 0.0 0.00 0.51 0.00 64 1053.8
20260830124508 24 315 9.7 0.0 0.00 0.51 0.00 64 1053.8